Terminal Aerodrome Forecast
Issued by NWS Albany, NY

Home | Current Version | Previous Version | Text Only | Print | Product List | Glossary On
Versions: 1 2 3 4 5 6 7 8 9 10 11 12 13 14 15 16 17 18 19
000
FTUS41 KALY 301600 AAA
TAFPOU
TAF AMD
KPOU 301620Z 3016/3112 VRB03KT P6SM SCT040
     FM301700 24008KT P6SM BKN060
     FM310200 00000KT P6SM BKN060=

USA.gov is the U.S. government's official web portal to all federal, state and local government web resources and services.